Location: Unspecified
(42.9300°N, 71.1866°W)
Time: 07:46:47

Cosmos 2058 - Visible Passes

Search period start: 18 March 2018 00:00
Search period end: 28 March 2018 00:00
Orbit: 562 x 586 km, 82.5° (Epoch: 17 March)

Date Brightness Start Highest point End Pass type
(mag) Time Alt. Az. Time Alt. Az. Time Alt. Az.
25 Mar 5.6 21:36:19 10° NNE 21:36:31 11° NNE 21:36:31 11° NNE visible
26 Mar 5.4 21:39:17 10° NNE 21:40:00 14° NNE 21:40:00 14° NNE visible
27 Mar 5.1 21:42:18 10° N 21:43:28 18° NNE 21:43:28 18° NNE visible
